Location: *
(58.4167°N, 22.5000°E)
Time: 08:56:57
(UTC+00:00)

Cosmos 839 Rocket - Pass Details

Date: 22 September 2019
Orbit: 968 x 2084 km, 65.9° (Epoch: 13 October)

Event Time Altitude Azimuth Distance (km) Brightness Sun altitude
Rises 20:25:04 0° 308° (NW) 3,799 8.2 -27.0°
Reaches altitude 10° 20:27:43 10° 309° (NW) 2,780 7.3 -27.2°
Maximum altitude 20:34:01 89° 39° (NE) 978 3.9 -27.6°
Enters shadow 20:34:37 75° 125° (SE) 1,010 3.8 -27.6°
